Theta_e
311 310 310 309 308 310 310 310 309 305 305 305 310 310 309 307 307 306 307 310 307 309 301 302 303 304 306 304 305 305 307 311 314 320 320 318 319 318 318 320 321 330 334 334 335
309 308 307 307 306 307 306 305 303 303 303 306 309 309 308 308 308 308 308 307 307 306 299 301 303 304 305 306 304 304 306 310 312 311 310 309 310 313 317 318 321 330 334 334 334
307 305 305 304 303 302 301 301 301 301 302 308 309 308 307 306 309 309 306 304 304 298 300 300 302 305 306 306 305 305 305 305 306 307 306 306 305 308 317 319 322 315 317 333 333
304 303 302 301 300 300 301 301 301 302 303 307 308 308 305 307 300 306 303 300 299 301 301 302 304 304 305 305 304 305 305 306 306 306 305 305 304 304 308 313 315 313 314 322 332
301 301 300 300 301 301 301 301 301 304 307 308 308 308 307 307 306 304 303 301 301 302 302 303 304 304 305 303 302 304 305 305 305 306 305 305 305 304 305 305 308 311 316 318 332
300 300 301 301 301 300 300 300 301 306 306 306 307 308 308 306 305 305 304 304 302 302 302 302 303 304 303 303 303 304 303 303 304 304 305 306 305 305 306 304 305 308 311 314 330
301 301 301 301 300 300 299 299 300 304 301 300 307 307 307 306 305 304 301 303 302 302 302 302 302 304 304 304 303 304 303 302 302 304 305 305 305 305 304 305 305 306 308 312 328
301 301 301 300 299 298 298 299 299 303 300 301 306 307 305 304 303 302 301 301 301 301 301 301 301 304 304 303 304 304 303 302 300 302 304 304 305 304 304 304 305 305 307 313 315
301 300 299 299 298 298 299 298 301 302 301 304 307 307 304 304 302 301 301 301 301 301 301 302 302 303 303 304 304 304 304 302 303 303 303 304 305 304 303 303 304 304 305 313 316
301 299 299 298 298 301 300 300 300 302 300 303 304 301 303 301 301 301 301 301 301 301 302 303 303 303 303 305 303 302 303 303 303 302 302 302 302 302 304 304 303 301 302 307 316
299 299 298 298 298 302 300 300 299 297 298 299 299 301 301 302 301 301 301 300 299 300 300 301 304 305 304 304 304 304 304 304 303 303 302 302 301 301 300 300 300 302 301 303 308
299 298 298 297 299 302 301 300 300 299 300 299 300 301 301 301 301 300 300 299 299 299 300 301 302 301 302 304 304 304 304 304 303 303 302 302 302 301 301 301 300 300 301 303 306
299 298 297 297 301 301 301 300 301 300 298 301 302 301 299 300 300 299 300 300 300 300 301 302 302 301 301 302 304 304 304 303 304 305 304 303 303 301 301 301 301 301 301 302 303
299 298 297 299 300 302 300 300 301 300 298 303 299 300 299 299 299 300 300 299 299 300 300 301 301 302 302 303 303 304 303 304 305 304 306 304 306 302 301 301 301 302 302 302 302
299 298 297 301 300 301 300 299 299 300 291 298 297 299 298 299 298 299 299 299 299 300 300 301 301 301 303 303 303 303 303 304 305 305 306 306 306 302 301 301 301 301 301 302 302
298 297 298 299 302 300 297 299 299 294 291 296 298 296 297 299 299 298 298 298 299 301 301 302 300 300 302 302 303 303 305 305 307 307 307 304 306 303 301 301 301 301 302 303 302
298 298 299 300 298 296 298 299 294 293 294 293 296 296 297 299 298 298 297 296 299 296 297 297 299 301 301 302 302 304 304 307 305 307 300 303 305 303 301 301 301 301 301 302 302
298 300 301 301 297 297 300 294 289 287 289 297 296 297 299 297 297 296 295 296 298 297 296 294 296 300 302 300 302 304 303 302 300 300 299 302 301 304 303 302 302 301 301 301 302
297 301 302 302 295 299 293 293 288 290 296 297 296 292 292 297 296 295 294 295 297 296 295 296 297 298 298 301 305 308 305 306 306 299 306 306 306 306 307 306 302 301 301 301 303
298 301 302 295 296 300 292 293 287 296 296 295 293 293 290 293 294 296 295 296 297 296 295 296 297 297 299 304 305 305 305 309 306 305 307 308 307 312 309 313 304 302 301 302 303
301 294 300 295 298 290 287 283 292 295 297 296 292 293 293 295 297 294 295 296 295 295 295 297 298 298 299 301 304 303 302 304 306 309 308 309 309 307 307 312 315 315 306 307 304
300 291 298 299 291 294 288 286 295 295 297 298 297 296 291 294 292 296 296 295 295 294 295 297 299 299 298 299 302 301 301 300 302 309 308 308 309 304 304 310 314 314 313 313 312
295 292 298 297 287 282 289 294 295 295 296 296 297 296 289 290 293 291 295 295 294 295 297 298 298 297 297 302 301 299 299 296 299 302 309 309 308 302 303 309 309 309 308 307 306
292 290 288 290 289 292 289 288 291 295 296 297 297 296 291 288 292 292 295 295 295 295 297 297 299 299 299 299 299 297 297 295 297 298 302 302 300 297 300 306 306 305 304 305 303
291 288 284 286 286 294 293 293 294 293 296 295 294 290 291 291 292 287 293 295 295 296 296 297 298 299 299 299 299 295 295 295 293 294 298 300 297 294 294 303 303 303 302 301 301
292 290 284 282 291 295 295 293 296 295 294 293 289 290 288 289 291 294 295 295 295 295 295 297 297 299 300 301 298 295 294 295 292 291 293 297 295 292 289 294 297 298 299 298 297
294 294 292 292 293 290 294 294 294 294 294 294 294 293 289 290 291 292 293 293 294 295 296 297 298 298 300 301 303 295 293 294 291 290 291 292 293 291 287 287 286 290 292 293 293
Wind_Speed
8 9 10 12 13 13 14 14 16 17 18 19 19 21 22 25 28 20 6 3 3 12 14 15 13 16 16 4 5 1 3 12 12 5 11 14 15 3 9 5 11 2 8 7 23
8 9 10 11 12 14 15 17 17 18 19 19 19 21 23 24 27 11 1 3 8 12 14 14 10 12 4 4 5 4 4 5 5 7 8 12 11 9 8 14 12 5 8 18 27
9 9 10 11 13 15 16 17 18 19 19 19 18 20 22 21 5 1 3 7 11 13 12 16 15 7 5 4 5 5 12 10 13 12 11 9 14 7 5 7 3 7 14 7 16
10 11 11 13 14 15 17 18 19 19 19 19 18 18 21 8 4 3 6 8 12 11 10 13 5 7 4 7 8 7 11 12 8 7 10 12 8 9 10 10 12 16 14 13 10
10 12 13 14 15 17 20 22 21 21 21 19 17 15 10 3 5 6 12 11 9 14 8 6 6 4 4 9 11 8 8 11 12 12 12 13 13 12 19 9 11 15 11 14 16
12 13 14 16 18 20 23 24 23 23 23 21 14 11 4 4 1 9 13 11 11 10 9 10 4 7 7 7 7 6 15 16 16 16 13 13 14 6 23 9 17 17 13 15 11
12 13 16 18 21 22 25 23 25 24 19 13 7 5 4 9 7 17 15 14 13 15 5 12 12 3 7 9 12 9 8 14 15 8 10 11 17 24 16 15 18 17 15 14 8
12 15 17 20 23 25 26 25 26 22 12 7 2 1 5 10 11 10 15 14 17 12 13 16 17 8 5 7 13 13 7 7 13 10 11 13 23 17 12 19 21 19 12 11 10
13 16 19 22 25 26 25 27 19 10 5 5 1 3 7 8 7 16 18 13 19 19 18 15 10 7 3 7 9 5 8 9 13 11 15 12 21 17 18 19 21 18 15 9 9
14 17 20 23 26 21 26 16 12 4 9 4 5 1 5 6 14 25 13 17 11 7 5 3 3 4 3 6 8 5 6 11 14 15 12 15 13 7 11 15 14 10 13 11 9
15 18 21 22 22 18 25 5 8 5 8 4 8 5 9 13 19 6 22 9 5 2 4 5 5 10 12 16 18 15 19 21 20 20 15 17 16 12 8 11 10 11 8 14 14
15 18 21 22 15 13 18 7 2 5 9 7 11 8 17 13 8 10 12 3 4 10 8 6 17 19 16 17 21 20 21 21 22 15 11 17 19 15 13 15 14 15 12 10 14
16 19 22 23 6 9 14 10 6 3 3 7 5 3 6 5 7 10 3 4 5 8 9 11 16 18 18 18 17 17 17 18 20 15 18 16 18 16 11 12 15 17 17 12 11
17 20 22 21 3 15 4 14 6 1 3 5 4 3 4 5 5 6 2 3 3 10 9 11 10 10 17 20 19 22 21 20 19 14 15 11 10 16 14 16 18 18 16 15 12
16 19 19 11 6 3 10 14 4 2 5 9 6 1 8 4 10 5 3 4 15 20 4 17 18 22 21 18 14 11 12 16 18 17 12 15 5 6 13 17 17 15 17 17 12
16 19 16 7 5 7 14 7 1 6 5 8 5 13 13 4 5 5 7 10 9 7 12 18 20 14 8 11 13 15 12 18 12 9 10 12 11 12 13 23 21 21 19 18 14
15 16 10 5 7 16 10 2 5 6 6 10 8 10 12 7 8 7 13 9 5 8 12 14 5 1 3 10 9 7 5 2 2 4 5 5 10 20 12 20 22 21 19 19 16
16 11 8 5 17 12 4 5 8 4 5 5 7 13 5 12 7 12 11 7 7 7 9 6 10 4 3 9 8 11 3 1 4 2 5 5 6 8 16 21 21 23 19 16 15
15 6 4 6 15 8 5 6 6 5 4 9 12 5 6 4 4 10 5 4 5 11 5 6 7 8 11 9 3 3 4 5 3 4 3 4 5 10 9 9 21 18 13 11 16
10 5 2 15 10 5 5 1 3 2 3 3 2 3 5 7 9 13 5 3 6 11 13 4 9 8 15 2 3 4 7 3 0 3 4 3 8 3 17 14 14 16 15 12 9
4 3 5 13 5 5 4 5 4 4 4 2 3 5 5 7 7 4 6 11 6 11 14 8 5 10 10 5 7 9 9 5 6 3 2 4 2 10 16 16 9 5 4 5 9
3 2 9 8 4 3 2 4 4 4 3 5 3 4 5 4 5 3 5 4 12 11 16 3 4 6 17 7 7 8 12 8 4 2 1 2 2 17 21 13 10 15 13 13 16
2 2 5 3 3 3 4 3 3 3 3 4 3 3 1 3 6 4 5 5 16 19 5 6 3 7 10 4 4 11 18 22 9 5 4 3 5 17 20 9 15 15 17 17 19
3 2 4 5 1 4 3 3 5 4 5 4 6 4 4 3 5 8 10 9 18 17 8 13 3 5 5 10 10 15 20 25 15 5 4 8 9 22 25 19 20 19 20 21 21
3 2 4 2 3 2 3 2 3 5 3 2 4 2 1 4 9 4 5 17 6 6 9 5 3 5 13 12 3 21 20 25 21 17 8 12 13 19 22 18 20 19 22 26 25
3 4 2 2 1 3 1 2 3 4 3 4 2 6 5 5 7 19 14 12 6 7 13 2 4 6 2 11 7 19 24 18 19 19 10 13 14 17 17 19 25 21 25 26 25
3 2 4 2 1 3 2 3 4 4 4 5 5 7 4 7 6 15 15 15 15 15 6 4 4 4 4 8 1 7 22 12 18 22 10 11 9 14 21 25 23 22 25 24 22
Wind_Direction
12 15 12 4 358 355 352 350 348 346 342 339 339 335 333 333 328 339 326 106 20 341 347 343 350 342 333 282 206 316 270 251 260 268 276 299 299 354 318 331 319 229 147 167 159
19 15 9 2 360 356 352 347 343 340 337 335 334 331 333 334 326 305 276 322 319 337 346 339 326 315 311 273 302 182 229 259 289 310 305 313 311 325 355 342 318 12 62 136 149
18 15 10 8 3 356 349 344 339 335 333 329 329 329 332 332 306 67 27 339 328 334 331 316 296 302 278 275 254 255 257 282 289 297 302 308 305 319 333 294 239 1 334 196 163
19 15 11 5 360 352 344 338 333 328 325 322 324 326 334 336 357 38 344 332 331 347 330 319 335 337 305 294 297 289 289 281 291 298 303 295 294 287 268 263 280 303 299 271 239
20 13 6 358 354 348 338 332 328 325 320 314 313 321 340 347 257 328 321 325 340 338 319 310 308 307 299 311 316 297 295 301 317 310 294 290 282 273 277 288 271 287 307 322 211
15 7 0 353 347 340 337 332 328 324 315 308 299 311 302 279 271 320 312 310 315 314 308 310 298 309 274 256 254 301 307 298 296 286 288 294 297 289 276 296 286 285 288 291 218
10 5 357 348 341 338 335 329 327 325 325 319 289 295 269 256 299 300 313 284 296 284 257 265 281 325 328 310 274 272 302 303 284 283 283 294 271 262 290 294 280 271 270 273 242
5 357 351 346 341 338 334 330 328 327 329 328 308 280 254 277 303 306 322 297 296 292 297 298 282 249 225 277 290 287 283 263 265 258 257 231 258 263 268 275 276 281 257 249 266
359 355 350 348 344 343 340 334 323 326 336 348 23 187 278 310 311 316 315 299 288 281 273 287 275 232 256 263 284 230 263 251 284 255 261 246 263 253 247 253 265 268 263 244 248
357 354 351 350 348 354 348 341 339 11 350 256 274 33 281 314 312 316 316 309 269 266 321 278 218 218 217 209 243 227 227 264 264 276 285 292 286 285 243 243 253 257 248 241 242
355 354 351 349 350 360 4 4 12 358 23 288 279 259 286 297 306 274 303 303 290 277 249 257 240 238 236 228 241 260 266 268 270 271 273 274 278 280 287 291 291 281 270 250 242
352 352 349 347 348 360 15 59 81 283 315 282 255 255 269 278 298 278 312 326 338 289 286 277 256 265 265 257 257 269 278 272 276 272 255 269 271 267 262 268 264 275 278 275 256
350 350 349 348 7 17 55 42 340 306 279 299 232 265 276 290 271 300 28 327 292 282 281 270 270 305 286 286 290 277 272 274 273 302 279 260 273 262 250 251 271 264 265 250 263
349 351 351 351 32 343 55 353 344 289 41 296 329 303 310 294 292 345 260 214 299 283 294 272 273 287 301 285 274 272 269 265 271 276 271 202 258 249 242 250 254 258 258 263 250
347 349 352 2 336 22 328 335 315 295 16 301 309 319 325 326 279 340 288 333 287 286 244 262 291 292 288 287 303 276 281 261 262 260 265 246 253 260 236 244 241 242 250 247 241
344 346 351 13 344 336 336 338 279 40 300 335 317 331 342 297 316 290 335 307 267 302 277 281 298 290 288 307 262 262 278 257 244 244 245 242 209 246 221 225 237 241 238 251 228
343 345 355 4 328 336 346 64 33 87 348 305 321 342 323 318 316 351 333 340 35 340 330 328 294 208 340 307 289 235 304 305 218 205 233 171 202 241 237 228 229 232 236 237 225
339 342 352 342 339 342 31 54 53 242 255 325 319 318 330 5 324 347 341 347 37 15 309 343 325 24 280 295 275 290 225 270 246 236 269 260 243 249 231 229 225 233 230 235 224
338 353 323 334 341 349 70 52 201 225 295 326 320 22 324 349 310 357 322 283 50 43 28 324 280 315 300 314 295 8 172 274 281 219 251 235 300 326 341 284 228 236 220 221 223
345 344 319 340 351 24 68 211 211 256 291 30 333 40 322 313 343 346 309 297 359 28 10 271 288 290 328 353 270 275 325 317 312 288 281 304 303 286 328 314 212 225 231 242 233
356 29 346 345 16 46 101 227 281 275 329 191 266 297 253 303 320 298 279 302 27 349 349 293 225 289 329 30 353 6 2 338 290 222 247 308 269 341 334 344 356 58 220 256 210
18 16 354 358 49 47 100 198 265 281 287 278 239 221 237 313 302 281 267 286 345 332 328 303 290 286 291 305 238 356 342 337 273 238 175 251 301 347 342 328 42 51 39 37 58
90 252 345 13 77 330 319 308 259 282 289 311 277 195 184 322 327 250 282 276 321 330 311 336 309 309 338 42 50 3 345 346 318 199 320 21 353 338 340 35 55 61 58 59 64
80 14 335 40 130 130 62 289 302 246 255 248 265 324 359 293 228 279 290 312 324 312 328 346 260 243 262 284 311 353 359 8 13 30 329 23 350 344 353 31 49 53 58 62 63
48 236 181 323 335 47 108 189 277 327 262 317 313 170 176 301 299 238 254 315 294 325 359 313 286 284 293 264 153 30 9 15 19 3 32 10 15 354 353 32 50 59 64 60 60
128 136 341 165 258 19 39 271 275 293 267 288 183 284 187 220 215 291 307 324 287 308 329 335 279 322 307 117 72 39 15 22 18 6 5 17 32 4 3 30 45 46 60 59 55
125 113 104 309 44 70 228 265 269 343 283 240 315 309 287 247 253 267 269 271 263 292 310 294 307 329 309 324 351 25 9 10 25 27 348 16 3 12 23 38 34 34 48 57 56